ヒル彗星

465P/Hill (2023)

English version
Home page
Updated on May 15, 2024

---------------------------------------------------------------------

・ プロフィール

符号 465P/2023 L1
検出日 2023年6月1日
検出光度 18.8等
検出者 R. Kresken, F. Ocana, M. Micheli, L. Conversi (La Silla, Chile)

・ 写真集

・ 軌道要素

Epoch 2024 Mar. 31.0 TT = JDT 2460400.5
T 2023 May  9.60620 TT                                  Rudenko
q   2.3279305            (2000.0)            P               Q
n   0.06656857     Peri.  141.12789     +0.96116083     +0.06313962
a   6.0296192      Node   218.00696     -0.07731194     +0.99610113
e   0.6139175      Incl.   25.86955     +0.26493908     +0.06161107
P  14.8
>From 138 observations 2023 July 14-2024 Jan. 5, mean residual 0".6.

・ 光度変化

        m1 = 4.3 + 5 logΔ + 30.0 log r(t - 50)

---------------------------------------------------------------------

軌道要素はM.P.E.C. 2024-J304に掲載されたものです。
光度グラフはComet for Windowsで作成したものです。

---------------------------------------------------------------------

Copyright(C) Seiichi Yoshida (comet@aerith.net). All rights reserved.